When you browse on this site, cookies collect data to enhance your experience and personalize the content and advertising you see.
Visit our Privacy Policy to learn more. By continuing to use the site, you agree to this use of cookies and data.
  • In Hungary
  • List of Countries
  • For 7 days
  • Water Temperature
  • Weather Map
  • News
  • Weather Widgets
  • user-avatar
    Login

    Hourly Weather Bukavu

    Today, 4 June, Thursday

    Time Temperature Precipitation Wind Pressure Humidity
    00:00 +19°C° 0.2 mm 0 mps 688 mmHg 98%
    01:00 +19°C° 0.2 mm 0 mps 688 mmHg 98%
    02:00 +19°C° 0 mm 0 mps 688 mmHg 98%
    03:00 +19°C° 0.7 mm 0 mps 688 mmHg 98%
    04:00 +19°C° 0.7 mm 0 mps 688 mmHg 98%
    05:00 +18°C° 0.7 mm 0 mps 688 mmHg 99%
    06:00 +19°C° 1.5 mm 0 mps 689 mmHg 99%
    07:00 +19°C° 1.5 mm 0 mps 689 mmHg 99%
    08:00 +20°C° 0 mm 0 mps 690 mmHg 98%
    09:00 +21°C° 1.4 mm 0 mps 691 mmHg 97%
    10:00 +22°C° 1.4 mm 0 mps 691 mmHg 96%
    11:00 +23°C° 1.4 mm 0 mps 691 mmHg 95%
    12:00 +25°C° 1 mm 1 mps 690 mmHg 93%
    13:00 +26°C° 1 mm 1 mps 690 mmHg 91%
    14:00 +26°C° 1 mm 1 mps 689 mmHg 89%
    15:00 +26°C° 0.2 mm 1 mps 688 mmHg 90%
    16:00 +23°C° 0.2 mm 0 mps 688 mmHg 90%
    17:00 +23°C° 0.2 mm 0 mps 688 mmHg 91%
    18:00 +22°C° 0.1 mm 0 mps 688 mmHg 93%
    19:00 +21°C° 0.1 mm 0 mps 689 mmHg 95%
    20:00 +21°C° 0.1 mm 0 mps 689 mmHg 97%
    21:00 +20°C° 0 mm 0 mps 689 mmHg 97%
    22:00 +20°C° 0 mm 0 mps 689 mmHg 98%
    23:00 +19°C° 0 mm 0 mps 689 mmHg 98%

    Tomorrow, 5 June, Friday

    Time Temperature Precipitation Wind Pressure Humidity
    00:00 +19°C° 0 mm 0 mps 689 mmHg 98%
    01:00 +19°C° 0 mm 0 mps 689 mmHg 98%
    02:00 +19°C° 0 mm 0 mps 689 mmHg 98%
    03:00 +19°C° 0 mm 0 mps 689 mmHg 98%
    04:00 +19°C° 0 mm 0 mps 689 mmHg 98%
    05:00 +18°C° 0 mm 0 mps 689 mmHg 98%
    06:00 +20°C° 0 mm 0 mps 690 mmHg 94%
    07:00 +21°C° 0 mm 0 mps 690 mmHg 90%
    08:00 +22°C° 0 mm 0 mps 691 mmHg 86%
    09:00 +26°C° 0 mm 0 mps 691 mmHg 72%
    10:00 +29°C° 0 mm 0 mps 691 mmHg 58%
    11:00 +32°C° 0 mm 0 mps 691 mmHg 44%
    12:00 +32°C° 0 mm 0 mps 691 mmHg 44%
    13:00 +31°C° 0 mm 0 mps 690 mmHg 45%
    14:00 +33°C° 0 mm 1 mps 689 mmHg 45%
    15:00 +32°C° 0 mm 1 mps 689 mmHg 52%
    16:00 +30°C° 0 mm 1 mps 688 mmHg 58%
    17:00 +29°C° 0 mm 1 mps 687 mmHg 65%
    18:00 +27°C° 1.6 mm 1 mps 688 mmHg 75%
    19:00 +25°C° 1.6 mm 1 mps 688 mmHg 85%
    20:00 +23°C° 1.6 mm 2 mps 689 mmHg 95%
    21:00 +21°C° 0.8 mm 2 mps 689 mmHg 96%
    22:00 +22°C° 0.8 mm 1 mps 689 mmHg 97%
    23:00 +21°C° 0.8 mm 1 mps 689 mmHg 98%

    Day after tomorrow, 6 June, Saturday

    Time Temperature Precipitation Wind Pressure Humidity
    00:00 +21°C° 0.5 mm 1 mps 689 mmHg 98%
    01:00 +21°C° 0.5 mm 1 mps 689 mmHg 97%
    02:00 +19°C° 0.5 mm 0 mps 689 mmHg 97%
    03:00 +19°C° 0 mm 0 mps 689 mmHg 97%
    04:00 +21°C° 0 mm 1 mps 689 mmHg 97%
    05:00 +21°C° 0 mm 1 mps 689 mmHg 97%
    06:00 +22°C° 0 mm 1 mps 690 mmHg 95%
    07:00 +23°C° 0 mm 1 mps 691 mmHg 93%
    08:00 +24°C° 0 mm 1 mps 691 mmHg 91%
    09:00 +25°C° 0.3 mm 1 mps 691 mmHg 83%
    10:00 +27°C° 0.3 mm 1 mps 692 mmHg 76%
    11:00 +28°C° 0.3 mm 2 mps 692 mmHg 68%
    12:00 +28°C° 1.6 mm 1 mps 691 mmHg 75%
    13:00 +27°C° 1.6 mm 1 mps 690 mmHg 82%
    14:00 +27°C° 1.6 mm 1 mps 689 mmHg 89%
    15:00 +26°C° 0.8 mm 1 mps 689 mmHg 91%
    16:00 +25°C° 0.8 mm 1 mps 689 mmHg 93%
    17:00 +22°C° 0.8 mm 0 mps 688 mmHg 95%
    18:00 +23°C° 0.2 mm 1 mps 688 mmHg 96%
    19:00 +23°C° 0.2 mm 1 mps 689 mmHg 96%
    20:00 +22°C° 0.2 mm 1 mps 689 mmHg 96%
    21:00 +22°C° 0 mm 1 mps 688 mmHg 96%
    22:00 +21°C° 0 mm 1 mps 688 mmHg 96%
    23:00 +21°C° 0 mm 1 mps 688 mmHg 97%

    7 June, Sunday

    Time Temperature Precipitation Wind Pressure Humidity
    00:00 +19°C° 0 mm 0 mps 688 mmHg 96%
    01:00 +19°C° 0 mm 0 mps 688 mmHg 95%
    02:00 +19°C° 0 mm 0 mps 688 mmHg 95%
    03:00 +18°C° 0 mm 0 mps 688 mmHg 95%
    04:00 +18°C° 0 mm 0 mps 688 mmHg 95%
    05:00 +18°C° 0 mm 0 mps 688 mmHg 95%
    06:00 +20°C° 0 mm 0 mps 689 mmHg 90%
    07:00 +21°C° 0 mm 0 mps 689 mmHg 86%
    08:00 +22°C° 0 mm 0 mps 690 mmHg 81%
    09:00 +25°C° 0 mm 0 mps 690 mmHg 68%
    10:00 +29°C° 0 mm 1 mps 691 mmHg 56%
    11:00 +32°C° 0 mm 1 mps 691 mmHg 43%
    12:00 +33°C° 0 mm 1 mps 690 mmHg 42%
    13:00 +34°C° 0 mm 2 mps 689 mmHg 41%
    14:00 +35°C° 0 mm 2 mps 689 mmHg 39%
    15:00 +33°C° 0 mm 1 mps 688 mmHg 44%
    16:00 +32°C° 0 mm 1 mps 688 mmHg 49%
    17:00 +31°C° 0 mm 1 mps 687 mmHg 54%
    18:00 +29°C° 0 mm 1 mps 688 mmHg 63%
    19:00 +26°C° 0 mm 1 mps 688 mmHg 71%
    20:00 +24°C° 0 mm 1 mps 688 mmHg 79%
    21:00 +23°C° 0.1 mm 1 mps 688 mmHg 83%
    22:00 +23°C° 0.1 mm 1 mps 688 mmHg 87%
    23:00 +22°C° 0.1 mm 1 mps 688 mmHg 91%

    8 June, Monday

    Time Temperature Precipitation Wind Pressure Humidity
    00:00 +20°C° 0.1 mm 0 mps 688 mmHg 92%
    01:00 +19°C° 0.1 mm 0 mps 687 mmHg 93%
    02:00 +19°C° 0.1 mm 0 mps 687 mmHg 94%
    03:00 +19°C° 0.2 mm 0 mps 687 mmHg 95%
    04:00 +19°C° 0.2 mm 0 mps 687 mmHg 96%
    05:00 +19°C° 0.2 mm 0 mps 688 mmHg 96%
    06:00 +20°C° 0 mm 0 mps 688 mmHg 94%
    07:00 +20°C° 0 mm 0 mps 689 mmHg 91%
    08:00 +21°C° 0 mm 0 mps 689 mmHg 88%
    09:00 +24°C° 0.1 mm 0 mps 689 mmHg 76%
    10:00 +29°C° 0.1 mm 1 mps 689 mmHg 64%
    11:00 +31°C° 0.1 mm 1 mps 690 mmHg 53%
    12:00 +32°C° 0 mm 1 mps 689 mmHg 50%
    13:00 +32°C° 0 mm 1 mps 688 mmHg 47%
    14:00 +34°C° 0 mm 2 mps 687 mmHg 43%
    15:00 +32°C° 0 mm 1 mps 687 mmHg 49%
    16:00 +31°C° 0 mm 1 mps 687 mmHg 55%
    17:00 +30°C° 0 mm 1 mps 686 mmHg 61%
    18:00 +28°C° 0.7 mm 1 mps 686 mmHg 71%
    19:00 +25°C° 0.7 mm 1 mps 687 mmHg 81%
    20:00 +23°C° 0.7 mm 1 mps 687 mmHg 91%
    21:00 +22°C° 4 mm 1 mps 687 mmHg 94%
    22:00 +22°C° 4 mm 1 mps 687 mmHg 96%
    23:00 +22°C° 4 mm 1 mps 688 mmHg 99%

    9 June, Tuesday

    Time Temperature Precipitation Wind Pressure Humidity
    00:00 +21°C° 0.7 mm 1 mps 688 mmHg 99%
    01:00 +21°C° 0.7 mm 1 mps 687 mmHg 99%
    02:00 +19°C° 0.7 mm 0 mps 687 mmHg 99%
    03:00 +19°C° 0.1 mm 0 mps 687 mmHg 98%
    04:00 +19°C° 0.1 mm 0 mps 687 mmHg 98%
    05:00 +19°C° 0.1 mm 0 mps 688 mmHg 98%
    06:00 +20°C° 0.3 mm 0 mps 688 mmHg 97%
    07:00 +20°C° 0.3 mm 0 mps 689 mmHg 97%
    08:00 +21°C° 0.3 mm 0 mps 689 mmHg 96%
    09:00 +24°C° 0.8 mm 1 mps 690 mmHg 92%
    10:00 +25°C° 0.8 mm 1 mps 690 mmHg 87%
    11:00 +26°C° 0.8 mm 1 mps 690 mmHg 83%
    12:00 +27°C° 0.6 mm 1 mps 689 mmHg 77%
    13:00 +28°C° 0.6 mm 1 mps 689 mmHg 71%
    14:00 +29°C° 0.6 mm 1 mps 688 mmHg 65%
    15:00 +28°C° 0.6 mm 1 mps 688 mmHg 72%
    16:00 +27°C° 0.6 mm 1 mps 687 mmHg 80%
    17:00 +24°C° 0.6 mm 0 mps 687 mmHg 87%
    18:00 +23°C° 0.2 mm 0 mps 687 mmHg 89%
    19:00 +21°C° 0.2 mm 0 mps 687 mmHg 92%
    20:00 +20°C° 0.2 mm 0 mps 687 mmHg 95%
    21:00 +20°C° 0.3 mm 0 mps 688 mmHg 95%
    22:00 +20°C° 0.3 mm 0 mps 688 mmHg 95%
    23:00 +20°C° 0.3 mm 0 mps 688 mmHg 96%
    Show more